Dublin, GA

7:12 AM EDT on May 22, 2018 (GMT -0400)
Dublin

Weather History for KDBN - May, 2012

Change the Weather History Date:

Sunday, May 13, 2012

  Actual Average Record
Temperature  
Mean Temperature 68 °F -  
Max Temperature 73 °F 86 °F 95 °F (1933)
Min Temperature 64 °F 57 °F 42 °F (1960)
Cooling Degree Days 4    
Growing Degree Days 18 (Base 50)    
Moisture  
Dew Point 63 °F    
Average Humidity 86    
Maximum Humidity 100    
Minimum Humidity 56    
Precipitation  
Precipitation 0.00 in - - ()
Sea Level Pressure  
Sea Level Pressure 30.14 in    
Wind  
Wind Speed 5 mph (SE)    
Max Wind Speed 10 mph    
Max Gust Speed 16 mph    
Visibility 8 miles    
Events Rain    
Averages and records for this station are not official NWS values.
T = Trace of Precipitation, MM = Missing Value Source: NWS Daily Summary

Daily Weather History Graph

Daily Weather History Graph

Search for Another Location

Airport or City:

Astronomy

May. 13, 2012 Rise Set
Actual Time 6:32 AM EDT 8:24 PM EDT
Civil Twilight 6:05 AM EDT 8:51 PM EDT
Nautical Twilight 5:32 AM EDT 9:25 PM EDT
Astronomical Twilight 4:56 AM EDT 10:00 PM EDT
Moon 2:17 AM EDT (5/13) 2:03 PM EDT (5/13)
Length of Visible Light 14h 46m
Length of Day
13h 51m
Last Quarter, 42% of the Moon is Illuminated
May 13
Last Quarter
May 20
New
May 28
First Quarter
Jun 4
Full
Jun 11
Last Quarter

Hourly Weather History & Observations

Time (EDT) Temp. Dew Point Humidity Pressure Visibility Wind Dir Wind Speed Gust Speed Precip Events Conditions
12:15 AM 69.8 °F 53.6 °F 56% 30.22 in 10.0 mi SE 6.9 mph 16.1 mph N/A   Overcast
12:35 AM 69.8 °F 53.6 °F 56% 30.22 in 10.0 mi SE 8.1 mph - N/A   Overcast
12:55 AM 68.0 °F 55.4 °F 64% 30.21 in 10.0 mi SE 6.9 mph - N/A   Mostly Cloudy
1:15 AM 68.0 °F 55.4 °F 64% 30.21 in 10.0 mi SE 4.6 mph - N/A   Scattered Clouds
1:55 AM 66.2 °F 55.4 °F 68% 30.21 in 10.0 mi SE 3.5 mph - N/A   Scattered Clouds
2:15 AM 66.2 °F 55.4 °F 68% 30.20 in 10.0 mi ESE 3.5 mph - N/A   Mostly Cloudy
2:35 AM 66.2 °F 55.4 °F 68% 30.20 in 10.0 mi Calm Calm - N/A   Overcast
3:15 AM 66.2 °F 55.4 °F 68% 30.19 in 10.0 mi SE 4.6 mph - N/A   Overcast
3:35 AM 66.2 °F 57.2 °F 73% 30.19 in 10.0 mi ESE 4.6 mph - N/A   Overcast
3:55 AM 66.2 °F 57.2 °F 73% 30.19 in 10.0 mi ESE 3.5 mph - N/A   Overcast
4:15 AM 64.4 °F 57.2 °F 77% 30.19 in 7.0 mi ESE 4.6 mph - N/A   Overcast
4:35 AM 64.4 °F 57.2 °F 77% 30.19 in 7.0 mi ESE 4.6 mph - N/A   Overcast
4:55 AM 64.4 °F 57.2 °F 77% 30.18 in 7.0 mi ESE 4.6 mph - N/A   Mostly Cloudy
5:15 AM 64.4 °F 59.0 °F 83% 30.18 in 7.0 mi ESE 5.8 mph - N/A   Mostly Cloudy
5:35 AM 64.4 °F 59.0 °F 83% 30.18 in 5.0 mi ESE 4.6 mph - N/A   Haze
5:55 AM 64.4 °F 59.0 °F 83% 30.18 in 5.0 mi ESE 4.6 mph - N/A   Haze
6:15 AM 64.4 °F 59.0 °F 83% 30.18 in 5.0 mi ESE 5.8 mph - N/A   Haze
6:35 AM 64.4 °F 59.0 °F 83% 30.19 in 7.0 mi SE 3.5 mph - N/A Rain Light Rain
6:55 AM 64.4 °F 60.8 °F 88% 30.19 in 7.0 mi SE 5.8 mph - N/A Rain Rain
7:35 AM 64.4 °F 60.8 °F 88% 30.21 in 7.0 mi Calm Calm - N/A Rain Light Rain
8:15 AM 64.4 °F 62.6 °F 94% 30.21 in 7.0 mi ENE 3.5 mph - N/A   Overcast
8:35 AM 64.4 °F 62.6 °F 94% 30.21 in 7.0 mi Calm Calm - N/A   Overcast
8:55 AM 64.4 °F 62.6 °F 94% 30.21 in 10.0 mi Calm Calm - N/A   Overcast
9:15 AM 64.4 °F 62.6 °F 94% 30.21 in 10.0 mi Calm Calm - N/A Rain Light Rain
9:35 AM 64.4 °F 62.6 °F 94% 30.21 in 7.0 mi Calm Calm - N/A Rain Rain
9:55 AM 64.4 °F 62.6 °F 94% 30.21 in 7.0 mi Calm Calm - N/A Rain Light Rain
10:15 AM 64.4 °F 62.6 °F 94% 30.21 in 3.0 mi Calm Calm - N/A Rain Rain
10:35 AM 64.4 °F 64.4 °F 100% 30.21 in 3.0 mi Calm Calm - N/A Rain Rain
11:15 AM 64.4 °F 64.4 °F 100% 30.20 in 4.0 mi Calm Calm - N/A Rain Light Rain
11:35 AM 64.4 °F 64.4 °F 100% 30.20 in 4.0 mi SE 3.5 mph - N/A Rain Light Rain
11:55 AM 66.2 °F 64.4 °F 94% 30.19 in 5.0 mi SSE 4.6 mph - N/A Rain Light Rain
12:35 PM 68.0 °F 66.2 °F 94% 30.19 in 5.0 mi South 6.9 mph - N/A Rain Rain
1:15 PM 68.0 °F 64.4 °F 88% 30.18 in 5.0 mi SSE 5.8 mph - N/A Rain Rain
1:35 PM 68.0 °F 66.2 °F 94% 30.17 in 5.0 mi SSE 5.8 mph - N/A   Drizzle
1:55 PM 68.0 °F 64.4 °F 88% 30.16 in 7.0 mi SSE 6.9 mph - N/A   Light Drizzle
2:15 PM 68.0 °F 64.4 °F 88% 30.15 in 10.0 mi SSE 8.1 mph - N/A Rain Rain
2:35 PM 68.0 °F 64.4 °F 88% 30.14 in 7.0 mi SSE 9.2 mph - N/A Rain Light Rain
2:55 PM 69.8 °F 66.2 °F 88% 30.13 in 10.0 mi SSE 6.9 mph - N/A   Overcast
3:15 PM 69.8 °F 64.4 °F 83% 30.12 in 10.0 mi SE 6.9 mph - N/A   Mostly Cloudy
3:35 PM 71.6 °F 66.2 °F 83% 30.11 in 10.0 mi SSE 4.6 mph - N/A   Overcast
3:55 PM 73.4 °F 66.2 °F 78% 30.10 in 10.0 mi SSE 9.2 mph - N/A   Overcast
4:15 PM 73.4 °F 66.2 °F 78% 30.09 in 10.0 mi SSE 8.1 mph - N/A   Overcast
4:35 PM 73.4 °F 66.2 °F 78% 30.09 in 10.0 mi SSE 8.1 mph - N/A   Overcast
4:55 PM 71.6 °F 64.4 °F 78% 30.08 in 10.0 mi South 10.4 mph - N/A Rain Light Rain
5:15 PM 71.6 °F 64.4 °F 78% 30.08 in 10.0 mi South 6.9 mph - N/A   Overcast
5:35 PM 71.6 °F 66.2 °F 83% 30.08 in 10.0 mi SSE 4.6 mph - N/A   Overcast
5:55 PM 71.6 °F 66.2 °F 83% 30.08 in 10.0 mi Calm Calm - N/A   Light Drizzle
6:15 PM 71.6 °F 68.0 °F 88% 30.08 in 10.0 mi East 3.5 mph - N/A Rain Light Rain
6:35 PM 69.8 °F 68.0 °F 94% 30.06 in 10.0 mi ESE 3.5 mph - N/A   Overcast
6:55 PM 69.8 °F 68.0 °F 94% 30.06 in 7.0 mi ESE 3.5 mph - N/A Rain Light Rain
7:15 PM 69.8 °F 69.8 °F 100% 30.05 in 4.0 mi East 5.8 mph - N/A Rain Light Rain
7:35 PM 69.8 °F 68.0 °F 94% 30.06 in 5.0 mi Calm Calm - N/A   Overcast
7:55 PM 69.8 °F 69.8 °F 100% 30.06 in 5.0 mi Calm Calm - N/A   Overcast
8:15 PM 69.8 °F 69.8 °F 100% 30.06 in 5.0 mi ESE 3.5 mph - N/A   Overcast
8:35 PM 69.8 °F 68.0 °F 94% 30.06 in 5.0 mi ESE 4.6 mph - N/A   Overcast
8:55 PM 69.8 °F 68.0 °F 94% 30.07 in 7.0 mi SE 4.6 mph - N/A   Overcast
9:15 PM 69.8 °F 68.0 °F 94% 30.07 in 7.0 mi SE 4.6 mph - N/A   Mostly Cloudy
9:35 PM 69.8 °F 68.0 °F 94% 30.07 in 7.0 mi ESE 4.6 mph - N/A   Scattered Clouds
9:55 PM 69.8 °F 68.0 °F 94% 30.07 in 7.0 mi SE 4.6 mph - N/A   Clear
10:15 PM 68.0 °F 68.0 °F 100% 30.07 in 7.0 mi SE 3.5 mph - N/A   Scattered Clouds
10:35 PM 68.0 °F 68.0 °F 100% 30.07 in 7.0 mi SE 4.6 mph - N/A   Mostly Cloudy
10:55 PM 68.0 °F 68.0 °F 100% 30.06 in 7.0 mi SSE 5.8 mph - N/A   Scattered Clouds
11:15 PM 68.0 °F 68.0 °F 100% 30.06 in 7.0 mi SSE 4.6 mph - N/A   Clear
11:35 PM 68.0 °F 68.0 °F 100% 30.07 in 7.0 mi SSE 4.6 mph - N/A   Scattered Clouds
11:55 PM 68.0 °F 68.0 °F 100% 30.07 in 7.0 mi SSE 4.6 mph - N/A   Mostly Cloudy